• In Belgien
  • Länderverzeichnis
  • Für 7 Tage
  • Wassertemperatur
  • Satellitenkarten
  • Wetterkarte
  • Widgets
  • user-avatar
    Anmelden

    Stündliche Wetter Kazahskiy

    Heute, 16 Oktober, Dienstag

    Zeit Temperatur Niederschläge Wind Luftdruck Luftfeuchtigkeit
    00:00 +7°C° 0 mm 2 m/S 762 mmHg 72%
    01:00 +7°C° 0 mm 2 m/S 762 mmHg 76%
    02:00 +8°C° 0 mm 2 m/S 762 mmHg 81%
    03:00 +8°C° 0 mm 2 m/S 761 mmHg 87%
    04:00 +8°C° 0 mm 2 m/S 761 mmHg 89%
    05:00 +9°C° 0 mm 2 m/S 761 mmHg 92%
    06:00 +9°C° 0 mm 2 m/S 761 mmHg 94%
    07:00 +10°C° 0 mm 2 m/S 761 mmHg 92%
    08:00 +11°C° 0 mm 3 m/S 761 mmHg 89%
    09:00 +12°C° 0 mm 3 m/S 761 mmHg 86%
    10:00 +13°C° 0 mm 3 m/S 761 mmHg 78%
    11:00 +14°C° 0 mm 3 m/S 761 mmHg 71%
    12:00 +16°C° 0 mm 3 m/S 761 mmHg 64%
    13:00 +16°C° 0 mm 3 m/S 761 mmHg 62%
    14:00 +16°C° 0 mm 3 m/S 760 mmHg 60%
    15:00 +17°C° 0 mm 3 m/S 760 mmHg 58%
    16:00 +14°C° 0 mm 3 m/S 760 mmHg 64%
    17:00 +13°C° 0 mm 3 m/S 760 mmHg 70%
    18:00 +12°C° 0 mm 2 m/S 760 mmHg 76%
    19:00 +12°C° 0 mm 2 m/S 760 mmHg 78%
    20:00 +10°C° 0 mm 2 m/S 760 mmHg 81%
    21:00 +10°C° 0 mm 2 m/S 760 mmHg 83%
    22:00 +9°C° 0 mm 2 m/S 760 mmHg 84%
    23:00 +9°C° 0 mm 3 m/S 759 mmHg 86%

    Morgen, 17 Oktober, Mittwoch

    Zeit Temperatur Niederschläge Wind Luftdruck Luftfeuchtigkeit
    00:00 +9°C° 0 mm 3 m/S 759 mmHg 87%
    01:00 +8°C° 0 mm 3 m/S 759 mmHg 88%
    02:00 +8°C° 0 mm 3 m/S 759 mmHg 90%
    03:00 +8°C° 0 mm 3 m/S 759 mmHg 91%
    04:00 +8°C° 0 mm 3 m/S 759 mmHg 91%
    05:00 +7°C° 0 mm 3 m/S 758 mmHg 91%
    06:00 +7°C° 0 mm 3 m/S 758 mmHg 90%
    07:00 +7°C° 0 mm 4 m/S 758 mmHg 84%
    08:00 +10°C° 0 mm 4 m/S 757 mmHg 77%
    09:00 +10°C° 0 mm 5 m/S 757 mmHg 70%
    10:00 +12°C° 0 mm 5 m/S 757 mmHg 66%
    11:00 +13°C° 0 mm 5 m/S 757 mmHg 61%
    12:00 +14°C° 0 mm 6 m/S 757 mmHg 56%
    13:00 +14°C° 0 mm 6 m/S 757 mmHg 59%
    14:00 +13°C° 0 mm 6 m/S 757 mmHg 63%
    15:00 +13°C° 0 mm 6 m/S 757 mmHg 66%
    16:00 +11°C° 0 mm 6 m/S 758 mmHg 67%
    17:00 +10°C° 0 mm 6 m/S 759 mmHg 69%
    18:00 +10°C° 0 mm 6 m/S 759 mmHg 71%
    19:00 +9°C° 0 mm 6 m/S 760 mmHg 69%
    20:00 +8°C° 0 mm 5 m/S 760 mmHg 67%
    21:00 +8°C° 0 mm 5 m/S 761 mmHg 65%
    22:00 +7°C° 0 mm 4 m/S 761 mmHg 68%
    23:00 +6°C° 0 mm 4 m/S 762 mmHg 71%

    übermorgen, 18 Oktober, Donnerstag

    Zeit Temperatur Niederschläge Wind Luftdruck Luftfeuchtigkeit
    00:00 +5°C° 0 mm 3 m/S 762 mmHg 75%
    01:00 +4°C° 0 mm 3 m/S 762 mmHg 77%
    02:00 +4°C° 0 mm 3 m/S 763 mmHg 79%
    03:00 +4°C° 0 mm 2 m/S 763 mmHg 81%
    04:00 +4°C° 0 mm 2 m/S 763 mmHg 83%
    05:00 +4°C° 0 mm 2 m/S 763 mmHg 85%
    06:00 +3°C° 0 mm 2 m/S 764 mmHg 86%
    07:00 +5°C° 0 mm 2 m/S 764 mmHg 81%
    08:00 +5°C° 0 mm 3 m/S 764 mmHg 75%
    09:00 +7°C° 0 mm 3 m/S 764 mmHg 69%
    10:00 +8°C° 0 mm 3 m/S 764 mmHg 63%
    11:00 +9°C° 0 mm 3 m/S 764 mmHg 56%
    12:00 +10°C° 0 mm 3 m/S 764 mmHg 50%
    13:00 +11°C° 0 mm 3 m/S 763 mmHg 50%
    14:00 +11°C° 0 mm 3 m/S 763 mmHg 50%
    15:00 +11°C° 0 mm 3 m/S 763 mmHg 49%
    16:00 +9°C° 0 mm 3 m/S 763 mmHg 54%
    17:00 +8°C° 0 mm 2 m/S 763 mmHg 59%
    18:00 +7°C° 0 mm 2 m/S 763 mmHg 63%
    19:00 +7°C° 0 mm 2 m/S 763 mmHg 64%
    20:00 +6°C° 0 mm 2 m/S 763 mmHg 65%
    21:00 +6°C° 0 mm 2 m/S 762 mmHg 66%
    22:00 +6°C° 0 mm 2 m/S 762 mmHg 67%
    23:00 +5°C° 0 mm 3 m/S 762 mmHg 68%

    19 Oktober, Freitag

    Zeit Temperatur Niederschläge Wind Luftdruck Luftfeuchtigkeit
    00:00 +5°C° 0 mm 3 m/S 762 mmHg 69%
    01:00 +5°C° 0 mm 3 m/S 762 mmHg 71%
    02:00 +5°C° 0 mm 3 m/S 762 mmHg 73%
    03:00 +4°C° 0 mm 3 m/S 762 mmHg 74%
    04:00 +4°C° 0 mm 3 m/S 761 mmHg 76%
    05:00 +4°C° 0 mm 3 m/S 761 mmHg 79%
    06:00 +4°C° 0 mm 3 m/S 761 mmHg 81%
    07:00 +6°C° 0 mm 4 m/S 761 mmHg 78%
    08:00 +7°C° 0 mm 4 m/S 760 mmHg 75%
    09:00 +9°C° 0 mm 5 m/S 760 mmHg 72%
    10:00 +10°C° 0 mm 5 m/S 760 mmHg 68%
    11:00 +12°C° 0 mm 5 m/S 760 mmHg 65%
    12:00 +14°C° 0 mm 6 m/S 759 mmHg 62%
    13:00 +14°C° 0 mm 5 m/S 759 mmHg 62%
    14:00 +14°C° 0 mm 5 m/S 759 mmHg 62%
    15:00 +15°C° 0 mm 5 m/S 759 mmHg 62%
    16:00 +14°C° 0 mm 5 m/S 759 mmHg 66%
    17:00 +13°C° 0 mm 4 m/S 759 mmHg 71%
    18:00 +12°C° 0 mm 4 m/S 759 mmHg 75%
    19:00 +12°C° 0 mm 4 m/S 759 mmHg 74%
    20:00 +12°C° 0 mm 4 m/S 758 mmHg 74%
    21:00 +12°C° 0 mm 5 m/S 758 mmHg 73%
    22:00 +12°C° 0 mm 4 m/S 758 mmHg 74%
    23:00 +11°C° 0 mm 4 m/S 758 mmHg 75%

    20 Oktober, Samstag

    Zeit Temperatur Niederschläge Wind Luftdruck Luftfeuchtigkeit
    00:00 +11°C° 0 mm 4 m/S 758 mmHg 76%
    01:00 +11°C° 0 mm 4 m/S 758 mmHg 78%
    02:00 +10°C° 0 mm 4 m/S 758 mmHg 79%
    03:00 +10°C° 0 mm 4 m/S 758 mmHg 81%
    04:00 +10°C° 0 mm 4 m/S 757 mmHg 80%
    05:00 +8°C° 0 mm 4 m/S 757 mmHg 80%
    06:00 +8°C° 0 mm 5 m/S 757 mmHg 79%
    07:00 +9°C° 0 mm 5 m/S 757 mmHg 74%
    08:00 +10°C° 0 mm 5 m/S 757 mmHg 69%
    09:00 +12°C° 0 mm 5 m/S 757 mmHg 64%
    10:00 +13°C° 0 mm 5 m/S 757 mmHg 60%
    11:00 +14°C° 0 mm 5 m/S 757 mmHg 55%
    12:00 +15°C° 0 mm 6 m/S 757 mmHg 51%
    13:00 +15°C° 0 mm 5 m/S 757 mmHg 51%
    14:00 +15°C° 0 mm 5 m/S 757 mmHg 50%
    15:00 +15°C° 0 mm 4 m/S 757 mmHg 50%
    16:00 +14°C° 0 mm 4 m/S 757 mmHg 54%
    17:00 +12°C° 0 mm 3 m/S 757 mmHg 57%
    18:00 +11°C° 0 mm 3 m/S 757 mmHg 61%
    19:00 +12°C° 0 mm 2 m/S 757 mmHg 64%
    20:00 +12°C° 0 mm 2 m/S 757 mmHg 68%
    21:00 +10°C° 0 mm 2 m/S 757 mmHg 71%
    22:00 +11°C° 0 mm 1 m/S 757 mmHg 74%
    23:00 +11°C° 0 mm 1 m/S 757 mmHg 77%

    21 Oktober, Sonntag

    Zeit Temperatur Niederschläge Wind Luftdruck Luftfeuchtigkeit
    00:00 +11°C° 0 mm 1 m/S 757 mmHg 80%
    01:00 +10°C° 0 mm 1 m/S 758 mmHg 82%
    02:00 +10°C° 0 mm 1 m/S 758 mmHg 84%
    03:00 +10°C° 0 mm 1 m/S 758 mmHg 85%
    04:00 +10°C° 0 mm 1 m/S 758 mmHg 86%
    05:00 +9°C° 0 mm 1 m/S 758 mmHg 86%
    06:00 +9°C° 0 mm 1 m/S 758 mmHg 87%
    07:00 +10°C° 0 mm 1 m/S 758 mmHg 82%
    08:00 +10°C° 0 mm 1 m/S 759 mmHg 78%
    09:00 +10°C° 0 mm 2 m/S 759 mmHg 74%
    10:00 +12°C° 0 mm 2 m/S 759 mmHg 70%
    11:00 +13°C° 0 mm 2 m/S 759 mmHg 67%
    12:00 +14°C° 0 mm 2 m/S 759 mmHg 64%
    13:00 +14°C° 0 mm 2 m/S 759 mmHg 64%
    14:00 +14°C° 0 mm 2 m/S 758 mmHg 63%
    15:00 +14°C° 0 mm 2 m/S 758 mmHg 63%
    16:00 +13°C° 0 mm 2 m/S 758 mmHg 67%
    17:00 +12°C° 0 mm 2 m/S 758 mmHg 71%
    18:00 +10°C° 0 mm 2 m/S 758 mmHg 74%
    19:00 +10°C° 0 mm 2 m/S 758 mmHg 75%
    20:00 +9°C° 0 mm 2 m/S 758 mmHg 77%
    21:00 +9°C° 0 mm 2 m/S 758 mmHg 78%
    22:00 +9°C° 0 mm 2 m/S 758 mmHg 78%
    23:00 +9°C° 0 mm 2 m/S 758 mmHg 79%
    Mehr zeigen